AMSC 1

Last updated on Sat Apr 13 2024 01:02:36 GMT+0100 (British Summer Time)

1 23553U 95019A 24103.37618795 -.00000103 00000+0 00000+0 0 9991 2 23553 12.5711 21.8017 0005759 348.2575 218.9712 1.00272933106190
UTC large
Height (km)
Speed (km/s)
/
Latitude / Longitude
Inclination (degrees)
Orbital Period (minutes)
Azimuth
Elevation
Range (km)
Doppler Factor

Next 0 passes for location: London (51.5072 / 0.1276)

Sorry there are no passes over London.